Location: Lafig�re
(44.4503°N, 4.0357°E)
Time: 14:08:01
(UTC+00:00)

deb Explorer IX - Pass Details

Date: 24 January 2021
Orbit: 537 x 1102 km, 38.8° (Epoch: 01 March)

Event Time Altitude Azimuth Distance (km) Brightness Sun altitude
Rises 21:39:54 0° 271° (W) 3,299 ? -51.9°
Enters shadow 21:39:58 - 271° (W) 3,278 ? -51.9°
Reaches altitude 10° 21:42:55 10° 259° (WSW) 2,257 - -52.4°
Maximum altitude 21:47:07 25° 205° (SSW) 1,367 - -53.0°
Drops below altitude 10° 21:50:50 10° 151° (SSE) 1,985 - -53.6°
Sets 21:53:20 0° 137° (SE) 2,816 - -53.9°
